Overview Statistics Trail Chart Weather Telemetry Raw packets
 

This is the latest recevied weather packets stored in our database for station/object K7SKM. If no packets are shown the sender has not sent any weather packets the latest 10 day(s).

<< 99 100 101 102 103 104 105 >>
Time Temp. Humidity Pressure Rain* Wind** Luminosity Snow
1787935964 17.78° C 70% 1023 hPa 0 mm - 114 W/m² -
1787935658 17.78° C 71% 1023 hPa 0 mm - 101 W/m² -
1787935355 17.22° C 72% 1023 hPa 0 mm - 91 W/m² -
1787935051 17.22° C 72% 1023.2 hPa 0 mm - 82 W/m² -
1787934746 17.22° C 72% 1023 hPa 0 mm - 69 W/m² -
1787934444 17.22° C 72% 1023.2 hPa 0 mm - 59 W/m² -
1787934140 17.22° C 72% 1023 hPa 0 mm - 57 W/m² -
1787933838 17.22° C 73% 1023.2 hPa 0 mm - 57 W/m² -
1787933533 17.22° C 73% 1023.1 hPa 0 mm - 55 W/m² -
1787933228 17.22° C 73% 1023.1 hPa 0 mm - 53 W/m² -
1787932928 17.22° C 74% 1023.1 hPa 0 mm - 50 W/m² -
1787932626 16.67° C 74% 1023.4 hPa 0 mm - 45 W/m² -
1787932321 16.67° C 74% 1023.2 hPa 0 mm - 34 W/m² -
1787932015 16.67° C 75% 1023.1 hPa 0 mm - 32 W/m² -
1787931709 16.67° C 75% 1023 hPa 0 mm - 34 W/m² -
1787931403 16.11° C 75% 1023.1 hPa 0 mm - 31 W/m² -
1787931099 16.11° C 76% 1023.1 hPa 0 mm - 33 W/m² -
1787930797 16.11° C 77% 1023.1 hPa 0 mm - 32 W/m² -
1787930492 16.11° C 78% 1023 hPa 0 mm - 30 W/m² -
1787930187 16.11° C 78% 1023.1 hPa 0 mm - 25 W/m² -
1787929886 15.56° C 78% 1023.2 hPa 0 mm - 21 W/m² -
1787929581 15.56° C 78% 1023.1 hPa 0 mm - 16 W/m² -
1787929280 15.56° C 78% 1023.1 hPa 0 mm - 18 W/m² -
1787928979 15.56° C 78% 1023.1 hPa 0 mm - 13 W/m² -
1787928674 15.56° C 79% 1023 hPa 0 mm - 16 W/m² -

* Rain latest hour (hover to see other rain measurements)
** Current wind speed in m/s (hover to see current wind gust speed)